Location: Bonnesvalyn
(49.1218°N, 3.3177°E)
Time: 20:44:54
(UTC+00:00)

Cosmos 1386 Rocket - Pass Details

Date: 09 February 2023
Orbit: 929 x 1005 km, 83.0° (Epoch: 21 March)

Event Time Altitude Azimuth Distance (km) Brightness Sun altitude
Rises 18:03:50 0° 351° (N) 3,595 7.5 -11.4°
Reaches altitude 10° 18:06:19 10° 352° (N) 2,649 6.8 -11.8°
Maximum altitude 18:12:22 81° 80° (E) 955 4.4 -12.8°
Drops below altitude 10° 18:18:27 10° 168° (SSE) 2,661 6.7 -13.8°
Sets 18:20:56 0° 170° (S) 3,611 7.4 -14.2°
